Regional Weather Roundup
Issued by NWS

Home | Current Version | Previous Version | Graphics & Text | Print | Product List | Glossary On
Versions: 1 2 3 4 5 6 7 8 9 10 11 12 13 14 15 16 17 18 19 20 21 22 23 24 25 26 27 28 29 30 31 32 33 34 35 36 37 38 39 40 41 42 43 44 45 46 47 48 49 50
000
ASUS43 KLSX 270559
RWRMO

WEATHER SUMMARY FOR MISSOURI
NATIONAL WEATHER SERVICE SPRINGFIELD MO
1200 AM CST TUE JAN 27 2015

NOTE: "FAIR" INDICATES FEW OR NO CLOUDS BELOW 12,000 FEET WITH NO
       SIGNIFICANT WEATHER AND/OR OBSTRUCTIONS TO VISIBILITY.
       CURRENT SKY AND/OR WEATHER CONDITIONS ARE NOT AVAILABLE FOR
       CHILLICOTHE AND FARMINGTON.

MOZ001>031-035>038-043-044-053-054-270700-
...NORTHERN AND WESTERN MISSOURI...

CITY           SKY/WX    TMP DP  RH WIND       PRES   REMARKS
KANSAS CTY INT CLEAR     42  32  67 NW8       30.03R
6HR MIN TEMP:  42; 6HR MAX TEMP:  52;

KANSAS C DTWN  CLEAR     34  29  82 NE6       30.03R WCI  29
6HR MIN TEMP:  34; 6HR MAX TEMP:  57;

LEE`S SUMMIT   CLEAR     46  32  58 NW8       30.02R
6HR MIN TEMP:  43; 6HR MAX TEMP:  54;

ST JOSEPH      CLEAR     31  28  89 CALM      30.05R
6HR MIN TEMP:  28; 6HR MAX TEMP:  48;

CHILLICOTHE      N/A     43  33  68 NW6       30.02R
6HR MIN TEMP:  43; 6HR MAX TEMP:  51;

KIRKSVILLE     CLEAR     36  33  89 W6        29.97R
6HR MIN TEMP:  36; 6HR MAX TEMP:  46;


$$
MOZ066>068-077>081-088>096-101>105-270700-
...SOUTHWEST MISSOURI...

CITY           SKY/WX    TMP DP  RH WIND       PRES   REMARKS
SPRINGFIELD    CLEAR     46  35  65 NW8       29.99S
6HR MIN TEMP:  36; 6HR MAX TEMP:  51;

JOPLIN         CLEAR     44  34  67 CALM      30.04R
6HR MIN TEMP:  44; 6HR MAX TEMP:  52;


$$
MOZ032>034-039>042-045>050-055>058-069>072-270700-
...CENTRAL MISSOURI...

CITY           SKY/WX    TMP DP  RH WIND       PRES   REMARKS
COLUMBIA       FAIR      40  34  79 NW10      29.96R
6HR MIN TEMP:  40; 6HR MAX TEMP:  47;

JEFFERSON CITY CLEAR     33  30  88 CALM      29.97R
6HR MIN TEMP:  32; 6HR MAX TEMP:  49;

ROLLA          CLEAR     43  33  68 NW12      29.92S
6HR MIN TEMP:  42; 6HR MAX TEMP:  48;

SEDALIA        CLEAR     43  32  65 NW9       30.01R
6HR MIN TEMP:  43; 6HR MAX TEMP:  50;

OSAGE BEACH    CLEAR     45  32  61 NW3       29.97S

$$
MOZ051-052-059>065-270700-
...EAST CENTRAL MISSOURI...

CITY           SKY/WX    TMP DP  RH WIND       PRES   REMARKS
ST LOUIS INTL  MOCLDY    37  30  75 W6        29.91S
6HR MIN TEMP:  32; 6HR MAX TEMP:  38;

SPIRIT OF STL  MOCLDY    32  29  88 CALM      29.92R
6HR MIN TEMP:  30; 6HR MAX TEMP:  35;

ST CHARLES     CLOUDY    35  30  82 W7        29.91S WCI  29
6HR MIN TEMP:  31; 6HR MAX TEMP:  35;


$$
MOZ072>076-082>087-097>100-106>115-270700-
...SOUTH CENTRAL AND SOUTHEAST MISSOURI...

CITY           SKY/WX    TMP DP  RH WIND       PRES   REMARKS
CAPE GIRARDEAU PTCLDY    31  29  92 SW5       29.91F WCI  26
6HR MIN TEMP:  29; 6HR MAX TEMP:  36;

FARMINGTON     PTCLDY    37  30  75 MISG      29.92S
6HR MIN TEMP:  28; 6HR MAX TEMP:  39;

POPLAR BLUFF   CLEAR     30  27  88 CALM      29.92F
6HR MIN TEMP:  30; 6HR MAX TEMP:  42;

WEST PLAINS    CLEAR     46  34  62 NW8       29.95F
6HR MIN TEMP:  44; 6HR MAX TEMP:  50;


$$



USA.gov is the U.S. government's official web portal to all federal, state and local government web resources and services.